KD7RJ Weather Reports


time (UTC)temp
F
wind
direction
speed
knots
gust
knots
rain 1hr
in
rain 24hr
in
rain mn
in
humidity
%
barometer
mb
20260902054523 63 222 0.0 0.0 0.00 0.03 0.00 77 1010.5
20260902053007 63 222 0.0 0.9 0.00 0.03 0.00 76 1010.6
20260902051503 63 228 1.7 4.3 0.00 0.03 0.00 75 1010.6
20260902050045 63 235 0.0 3.5 0.00 0.03 0.00 75 1010.6
20260902044543 63 229 0.0 5.2 0.00 0.03 0.00 75 1010.7
20260902043024 63 244 0.9 3.5 0.00 0.03 0.00 74 1010.6
20260902041539 64 250 0.0 0.0 0.00 0.03 0.00 74 1010.5
20260902040007 64 250 0.0 1.7 0.00 0.03 0.00 74 1010.6
20260902034505 64 250 0.0 2.6 0.00 0.03 0.00 73 1010.5
20260902033045 64 250 0.0 4.3 0.00 0.03 0.00 74 1010.4
20260902031544 64 253 0.0 0.0 0.00 0.03 0.00 74 1010.3
20260902030030 65 253 0.0 0.0 0.00 0.03 0.00 75 1010.3
20260902024530 65 251 0.0 4.3 0.00 0.03 0.00 74 1010.3
20260902023028 65 247 0.0 6.1 0.00 0.03 0.00 74 1010.1
20260902021529 66 254 0.9 7.8 0.00 0.03 0.00 73 1010.2
20260902020043 66 263 0.0 5.2 0.00 0.03 0.00 73 1010.1
20260902014524 66 261 0.0 7.8 0.00 0.03 0.03 73 1010.0
20260902013028 66 279 0.9 4.3 0.00 0.03 0.03 74 1010.0
20260902011523 66 292 0.0 2.6 0.03 0.03 0.03 75 1010.0
20260902010011 66 321 0.0 3.5 0.03 0.03 0.03 76 1010.0
20260902004505 66 325 0.0 6.1 0.03 0.03 0.03 75 1010.0
20260902003047 66 274 0.9 8.7 0.03 0.03 0.03 72 1009.8
20260902001547 67 248 0.9 6.1 0.00 0.00 0.00 68 1009.7
20260902000031 68 208 0.9 5.2 0.00 0.00 0.00 68 1009.7
20260901234528 68 252 2.6 7.0 0.00 0.00 0.00 68 1009.9
20260901233010 68 240 3.5 8.7 0.00 0.00 0.00 68 1009.9
20260901231515 68 220 0.0 7.8 0.00 0.00 0.00 67 1010.0
20260901230057 68 221 0.9 7.8 0.00 0.00 0.00 67 1010.1
20260901224552 68 194 1.7 6.1 0.00 0.00 0.00 67 1010.1
20260901223100 68 186 0.9 7.0 0.00 0.00 0.00 67 1010.1
20260901221543 68 178 2.6 6.1 0.00 0.00 0.00 68 1010.1
20260901220047 68 198 1.7 6.1 0.00 0.00 0.00 68 1010.1
20260901214540 67 207 1.7 7.0 0.00 0.00 0.00 70 1010.0
20260901213038 67 220 3.5 6.1 0.00 0.00 0.00 69 1010.1
20260901211538 67 229 1.7 7.0 0.00 0.00 0.00 70 1010.1
20260901210043 67 211 0.0 7.8 0.00 0.00 0.00 71 1010.2
20260901204638 66 209 1.7 8.7 0.00 0.00 0.00 71 1010.3
20260901203034 66 194 0.9 7.8 0.00 0.00 0.00 71 1010.3
20260901201518 66 235 0.9 6.1 0.00 0.00 0.00 72 1010.3
20260901200105 66 236 0.9 6.1 0.00 0.00 0.00 72 1010.4
20260901194611 66 190 0.0 7.0 0.00 0.00 0.00 74 1010.4
20260901193043 66 167 3.5 7.0 0.00 0.00 0.00 75 1010.6
20260901191542 66 178 1.7 5.2 0.00 0.00 0.00 76 1010.7
20260901190040 65 179 1.7 7.8 0.00 0.00 0.00 79 1010.9
20260901184524 64 209 0.9 5.2 0.00 0.00 0.00 82 1011.0
20260901183011 63 171 1.7 5.2 0.00 0.00 0.00 84 1011.0
20260901181506 62 164 0.0 6.1 0.00 0.00 0.00 87 1011.1
20260901180048 62 161 0.0 3.5 0.00 0.00 0.00 89 1011.2
20260901174556 61 161 0.0 2.6 0.00 0.00 0.00 92 1011.2
20260901173029 60 161 0.0 4.3 0.00 0.00 0.00 93 1011.2
20260901171528 60 161 0.0 5.2 0.00 0.00 0.00 93 1011.1
20260901170011 59 161 0.0 5.2 0.00 0.00 0.00 92 1011.0
20260901164509 59 161 0.0 2.6 0.00 0.00 0.00 93 1010.9
20260901163051 59 161 0.0 2.6 0.00 0.00 0.00 93 1011.0
20260901161601 59 161 0.0 1.7 0.00 0.00 0.00 92 1011.0
20260901160033 59 161 0.0 0.0 0.00 0.00 0.00 92 1010.9
20260901154532 59 161 0.0 0.0 0.00 0.00 0.00 91 1011.0
20260901153027 59 161 0.0 0.0 0.00 0.00 0.00 91 1011.0
20260901151516 59 161 0.0 0.0 0.00 0.00 0.00 90 1010.9
20260901150054 59 161 0.0 0.0 0.00 0.00 0.00 90 1010.8
20260901144555 59 161 0.0 0.0 0.00 0.00 0.00 90 1010.6
20260901143038 59 161 0.0 0.0 0.00 0.00 0.00 89 1010.7
20260901141533 59 161 0.0 0.0 0.00 0.00 0.00 88 1010.6
20260901140021 59 161 0.0 0.0 0.00 0.00 0.00 88 1010.6
20260901134515 59 161 0.0 0.0 0.00 0.00 0.00 87 1010.4
20260901133106 59 161 0.0 0.0 0.00 0.00 0.00 86 1010.3
20260901131557 59 161 0.0 0.0 0.00 0.00 0.00 86 1010.3
20260901130037 59 161 0.9 3.5 0.00 0.00 0.00 86 1010.2
20260901124537 59 161 0.0 0.0 0.00 0.00 0.00 86 1010.1
20260901123022 59 161 0.0 2.6 0.00 0.00 0.00 86 1010.2
20260901121521 59 161 0.0 6.1 0.00 0.00 0.00 86 1010.1
20260901120123 59 161 0.0 3.5 0.00 0.00 0.00 86 1010.1
20260901114601 59 160 0.0 5.2 0.00 0.00 0.00 86 1010.1
20260901113101 59 161 0.0 5.2 0.00 0.00 0.00 86 1010.2
20260901111540 59 161 0.0 3.5 0.00 0.00 0.00 86 1010.0
20260901110039 59 161 0.0 3.5 0.00 0.00 0.00 86 1009.8
20260901104538 59 161 0.0 0.9 0.00 0.00 0.00 87 1009.8
20260901103019 59 161 0.0 0.9 0.00 0.00 0.00 86 1009.7
20260901101607 59 161 0.0 2.6 0.00 0.00 0.00 85 1009.8
20260901100059 59 161 0.0 0.0 0.00 0.00 0.00 85 1009.7
20260901094541 60 161 1.7 3.5 0.00 0.00 0.00 85 1009.5
20260901093047 60 161 0.0 2.6 0.00 0.00 0.00 84 1009.4
20260901091519 60 161 0.0 0.0 0.00 0.00 0.00 84 1009.2
20260901090021 61 161 0.0 2.6 0.00 0.00 0.00 83 1009.1
20260901084555 61 161 0.0 6.1 0.00 0.00 0.00 82 1009.0
20260901083054 61 160 0.0 7.0 0.00 0.00 0.00 82 1009.1
20260901081534 62 160 1.7 5.2 0.00 0.00 0.00 81 1009.1
20260901080035 62 159 0.9 5.2 0.00 0.00 0.00 80 1008.9
20260901074513 63 159 2.6 7.0 0.00 0.00 0.00 78 1008.8
20260901073010 64 160 1.7 6.1 0.00 0.00 0.00 77 1008.6
20260901071602 64 161 2.6 6.1 0.00 0.00 0.00 75 1008.6
20260901070048 65 161 0.0 7.8 0.00 0.00 0.00 75 1008.3
20260901064529 65 209 0.9 4.3 0.00 0.00 0.00 76 1008.1
20260901063025 66 209 0.0 0.0 0.00 0.00 0.00 75 1007.7
20260901061505 66 209 0.0 0.0 0.00 0.00 0.00 74 1007.6
20260901060002 67 209 0.0 0.0 0.00 0.00 0.00 72 1007.4